When you browse on this site, cookies collect data to enhance your experience and personalize the content and advertising you see.
Visit our Privacy Policy to learn more. By continuing to use the site, you agree to this use of cookies and data.
  • Em Portugal
  • Lista de países
  • Para 7 dias
  • Temperatura da água
  • Mapa do tempo
  • Widgets de tempo
  • user-avatar
    Iniciar Sessão

    Previsão horária em Dar-es-Salam

    Hoje, 1 Abril, Quarta-feira

    Tempo Temperatura Precipitação Vento Pressão Humidade
    00:00 +29°C° 0 mm 2 m/s 757 mmHg 82%
    01:00 +29°C° 0.5 mm 2 m/s 757 mmHg 82%
    02:00 +29°C° 0.5 mm 2 m/s 756 mmHg 83%
    03:00 +29°C° 0 mm 2 m/s 756 mmHg 80%
    04:00 +29°C° 0.3 mm 2 m/s 757 mmHg 81%
    05:00 +28°C° 0.3 mm 2 m/s 757 mmHg 82%
    06:00 +28°C° 0.3 mm 1 m/s 757 mmHg 83%
    07:00 +29°C° 0.1 mm 2 m/s 758 mmHg 78%
    08:00 +31°C° 0.1 mm 2 m/s 758 mmHg 74%
    09:00 +32°C° 0 mm 2 m/s 759 mmHg 69%
    10:00 +32°C° 1 mm 2 m/s 758 mmHg 67%
    11:00 +34°C° 1 mm 2 m/s 758 mmHg 65%
    12:00 +34°C° 1 mm 3 m/s 758 mmHg 63%
    13:00 +34°C° 0.7 mm 3 m/s 757 mmHg 63%
    14:00 +34°C° 0.7 mm 4 m/s 756 mmHg 64%
    15:00 +34°C° 0.7 mm 4 m/s 755 mmHg 64%
    16:00 +34°C° 0.1 mm 4 m/s 755 mmHg 67%
    17:00 +33°C° 0.1 mm 3 m/s 756 mmHg 70%
    18:00 +31°C° 0.1 mm 3 m/s 756 mmHg 73%
    19:00 +31°C° 0 mm 3 m/s 756 mmHg 74%
    20:00 +30°C° 0 mm 3 m/s 756 mmHg 76%
    21:00 +30°C° 0 mm 2 m/s 756 mmHg 77%
    22:00 +30°C° 0 mm 2 m/s 757 mmHg 78%
    23:00 +29°C° 0 mm 2 m/s 757 mmHg 78%

    Amanhã, 2 Abril, Quinta-feira

    Tempo Temperatura Precipitação Vento Pressão Humidade
    00:00 +29°C° 0 mm 1 m/s 757 mmHg 79%
    01:00 +29°C° 0.4 mm 1 m/s 756 mmHg 81%
    02:00 +29°C° 0.4 mm 1 m/s 756 mmHg 82%
    03:00 +28°C° 0.4 mm 2 m/s 755 mmHg 84%
    04:00 +28°C° 1 mm 2 m/s 756 mmHg 85%
    05:00 +28°C° 1 mm 1 m/s 756 mmHg 87%
    06:00 +28°C° 1 mm 1 m/s 756 mmHg 88%
    07:00 +29°C° 0.4 mm 1 m/s 757 mmHg 84%
    08:00 +30°C° 0.4 mm 1 m/s 757 mmHg 80%
    09:00 +31°C° 0.4 mm 1 m/s 758 mmHg 76%
    10:00 +32°C° 0.9 mm 1 m/s 757 mmHg 71%
    11:00 +34°C° 0.9 mm 2 m/s 757 mmHg 66%
    12:00 +35°C° 0.9 mm 2 m/s 756 mmHg 61%
    13:00 +34°C° 2 mm 2 m/s 756 mmHg 63%
    14:00 +34°C° 2 mm 3 m/s 755 mmHg 65%
    15:00 +34°C° 2 mm 3 m/s 755 mmHg 67%
    16:00 +33°C° 0.9 mm 3 m/s 755 mmHg 71%
    17:00 +32°C° 0.9 mm 4 m/s 755 mmHg 75%
    18:00 +30°C° 0.9 mm 4 m/s 755 mmHg 78%
    19:00 +30°C° 0.1 mm 4 m/s 756 mmHg 80%
    20:00 +29°C° 0.1 mm 4 m/s 756 mmHg 81%
    21:00 +29°C° 0.1 mm 3 m/s 756 mmHg 82%
    22:00 +29°C° 0.7 mm 3 m/s 756 mmHg 83%
    23:00 +29°C° 0.7 mm 4 m/s 756 mmHg 83%

    Depois de amanhã, 3 Abril, Sexta-feira

    Tempo Temperatura Precipitação Vento Pressão Humidade
    00:00 +28°C° 0.7 mm 4 m/s 756 mmHg 84%
    01:00 +28°C° 1 mm 4 m/s 756 mmHg 84%
    02:00 +28°C° 1 mm 4 m/s 756 mmHg 83%
    03:00 +28°C° 1 mm 4 m/s 756 mmHg 83%
    04:00 +28°C° 0.8 mm 4 m/s 756 mmHg 84%
    05:00 +27°C° 0.8 mm 4 m/s 756 mmHg 85%
    06:00 +27°C° 0.8 mm 4 m/s 756 mmHg 87%
    07:00 +28°C° 0.7 mm 4 m/s 757 mmHg 85%
    08:00 +28°C° 0.7 mm 4 m/s 758 mmHg 83%
    09:00 +28°C° 0.7 mm 4 m/s 758 mmHg 81%
    10:00 +28°C° 1.1 mm 4 m/s 758 mmHg 80%
    11:00 +28°C° 1.1 mm 4 m/s 758 mmHg 80%
    12:00 +28°C° 1.1 mm 4 m/s 758 mmHg 79%
    13:00 +28°C° 1.3 mm 3 m/s 757 mmHg 81%
    14:00 +27°C° 1.3 mm 3 m/s 757 mmHg 82%
    15:00 +27°C° 1.3 mm 3 m/s 756 mmHg 84%
    16:00 +27°C° 1.2 mm 3 m/s 756 mmHg 85%
    17:00 +27°C° 1.2 mm 3 m/s 756 mmHg 86%
    18:00 +27°C° 1.2 mm 2 m/s 756 mmHg 87%
    19:00 +27°C° 0.1 mm 2 m/s 756 mmHg 87%
    20:00 +27°C° 0.1 mm 2 m/s 757 mmHg 86%
    21:00 +27°C° 0.1 mm 1 m/s 757 mmHg 85%
    22:00 +27°C° 0 mm 1 m/s 757 mmHg 85%
    23:00 +27°C° 0 mm 1 m/s 757 mmHg 85%

    4 Abril, Sábado

    Tempo Temperatura Precipitação Vento Pressão Humidade
    00:00 +27°C° 0 mm 1 m/s 757 mmHg 85%
    01:00 +27°C° 0.1 mm 2 m/s 757 mmHg 85%
    02:00 +27°C° 0.1 mm 2 m/s 756 mmHg 85%
    03:00 +27°C° 0.1 mm 2 m/s 756 mmHg 86%
    04:00 +27°C° 0.1 mm 2 m/s 756 mmHg 86%
    05:00 +27°C° 0.1 mm 3 m/s 757 mmHg 86%
    06:00 +27°C° 0.1 mm 3 m/s 757 mmHg 85%
    07:00 +27°C° 0 mm 3 m/s 758 mmHg 80%
    08:00 +28°C° 0 mm 3 m/s 758 mmHg 75%
    09:00 +29°C° 0 mm 4 m/s 759 mmHg 69%
    10:00 +30°C° 0 mm 4 m/s 758 mmHg 66%
    11:00 +32°C° 0 mm 4 m/s 758 mmHg 63%
    12:00 +32°C° 0 mm 4 m/s 758 mmHg 60%
    13:00 +33°C° 0 mm 3 m/s 757 mmHg 60%
    14:00 +33°C° 0 mm 3 m/s 757 mmHg 60%
    15:00 +32°C° 0 mm 2 m/s 756 mmHg 59%
    16:00 +31°C° 0 mm 2 m/s 756 mmHg 64%
    17:00 +31°C° 0 mm 2 m/s 756 mmHg 69%
    18:00 +30°C° 0 mm 3 m/s 756 mmHg 73%
    19:00 +30°C° 0 mm 3 m/s 757 mmHg 75%
    20:00 +29°C° 0 mm 3 m/s 757 mmHg 76%
    21:00 +29°C° 0 mm 2 m/s 758 mmHg 77%
    22:00 +28°C° 0 mm 2 m/s 758 mmHg 78%
    23:00 +28°C° 0 mm 2 m/s 758 mmHg 79%

    5 Abril, Domingo

    Tempo Temperatura Precipitação Vento Pressão Humidade
    00:00 +28°C° 0 mm 2 m/s 757 mmHg 80%
    01:00 +28°C° 0.1 mm 2 m/s 757 mmHg 81%
    02:00 +28°C° 0.1 mm 2 m/s 757 mmHg 82%
    03:00 +27°C° 0.1 mm 2 m/s 757 mmHg 83%
    04:00 +27°C° 0.3 mm 2 m/s 757 mmHg 84%
    05:00 +27°C° 0.3 mm 2 m/s 757 mmHg 85%
    06:00 +27°C° 0.3 mm 2 m/s 757 mmHg 86%
    07:00 +28°C° 0.3 mm 2 m/s 758 mmHg 82%
    08:00 +29°C° 0.3 mm 2 m/s 759 mmHg 77%
    09:00 +31°C° 0.3 mm 2 m/s 759 mmHg 73%
    10:00 +32°C° 0.2 mm 2 m/s 759 mmHg 68%
    11:00 +34°C° 0.2 mm 2 m/s 758 mmHg 62%
    12:00 +35°C° 0.2 mm 2 m/s 758 mmHg 57%
    13:00 +35°C° 0.8 mm 2 m/s 757 mmHg 59%
    14:00 +35°C° 0.8 mm 3 m/s 756 mmHg 60%
    15:00 +34°C° 0.8 mm 3 m/s 756 mmHg 62%
    16:00 +33°C° 0.6 mm 3 m/s 756 mmHg 66%
    17:00 +33°C° 0.6 mm 3 m/s 756 mmHg 70%
    18:00 +32°C° 0.6 mm 4 m/s 756 mmHg 74%
    19:00 +30°C° 0 mm 3 m/s 757 mmHg 75%
    20:00 +29°C° 0 mm 3 m/s 757 mmHg 77%
    21:00 +29°C° 0 mm 2 m/s 758 mmHg 78%
    22:00 +28°C° 0.1 mm 2 m/s 758 mmHg 79%
    23:00 +28°C° 0.1 mm 2 m/s 757 mmHg 80%

    6 Abril, Segunda-feira

    Tempo Temperatura Precipitação Vento Pressão Humidade
    00:00 +28°C° 0.1 mm 2 m/s 757 mmHg 81%
    01:00 +28°C° 1 mm 2 m/s 757 mmHg 82%
    02:00 +28°C° 1 mm 2 m/s 757 mmHg 83%
    03:00 +27°C° 1 mm 2 m/s 756 mmHg 85%
    04:00 +27°C° 1.1 mm 2 m/s 756 mmHg 86%
    05:00 +27°C° 1.1 mm 2 m/s 757 mmHg 86%
    06:00 +27°C° 1.1 mm 2 m/s 757 mmHg 87%
    07:00 +28°C° 0.8 mm 2 m/s 757 mmHg 84%
    08:00 +29°C° 0.8 mm 2 m/s 758 mmHg 80%
    09:00 +30°C° 0.8 mm 2 m/s 759 mmHg 76%
    10:00 +31°C° 1.1 mm 2 m/s 758 mmHg 71%
    11:00 +33°C° 1.1 mm 1 m/s 758 mmHg 66%
    12:00 +34°C° 1.1 mm 1 m/s 757 mmHg 61%
    13:00 +34°C° 0.8 mm 2 m/s 757 mmHg 62%
    14:00 +34°C° 0.8 mm 2 m/s 756 mmHg 63%
    15:00 +34°C° 0.8 mm 3 m/s 755 mmHg 64%
    16:00 +33°C° 0.2 mm 3 m/s 755 mmHg 67%
    17:00 +31°C° 0.2 mm 3 m/s 755 mmHg 70%
    18:00 +31°C° 0.2 mm 3 m/s 755 mmHg 72%
    19:00 +30°C° 0 mm 3 m/s 756 mmHg 73%
    20:00 +30°C° 0 mm 2 m/s 756 mmHg 74%
    21:00 +29°C° 0 mm 2 m/s 757 mmHg 75%
    22:00 +29°C° 0.1 mm 2 m/s 757 mmHg 77%
    23:00 +29°C° 0.1 mm 2 m/s 757 mmHg 78%
    Mostrar mais